www.pogodaiklimat.ru

Погода и климат >> Архив погоды >> Россия >> Ненецкий АО >> Хорей-Вер


ПОГОДА в Хорей-Вере

  • Прогноз погоды в Хорей-Вере
  • Монитор погоды в Хорей-Вере

АРХИВ ПОГОДЫ в Хорей-Вере

Время (UTC), дата Ветер
(напр.,м/с)
 
Видим.   Явления Облачность Т
(С)
Тd
(С)
f
(%)
Тe
(С)
Тes
(С)
Комфортность P
(гПа)
Po
(гПа)
Тmin
(С)
Tmax
(С)
R
(мм)
R24
(мм)
S
(см)
00 14.04 З 3 20 км 10/10 300 м
[St]
-11.7 -13.1 89 -18 -18 1024.7 1015.2
03 14.04 З 6 4000 м дымка 10/10 300 м
[St]
-9.8 -11.1 90 -18 -18 1022.3 1012.9 -15.3 35
06 14.04 ЮЗ 6 2000 м снег 10/0
[As op]
-5.9 -7.7 87 -14 -13 1018.6 1009.4
09 14.04 ЮЗ 9-13
{14}
4000 м снег {метель} 10/0
[As op]
-3.5 -5.8 84 -12 -12 1015.0 1005.9
12 14.04 ЮЗ 8-12
{13}
н/о н/о -2.6 -3.9 91 -11 -11 1011.3 1002.3
15 14.04 СЗ 6 2000 м снег {метель} 10/0
[As op]
-0.9 -2.1 92 -8 -8 1008.7 999.8 -0.3 0.4
18 14.04 З 5
{11}
2000 м снег {метель} 10/0
[As op]
-1.7 -2.4 95 -8 -8 1006.4 997.5
21 14.04 СЗ 4 20 км {снег} 10/10 300 м
[Sc]
-2.0 -3.1 92 -8 -8 1004.2 995.2
00 15.04 СЗ 5 н/о н/о -2.9 -3.9 93 -10 -10 1003.3 994.3
03 15.04 С 10-13
{13}
20 км позёмок 10/10 300 м
[Sc]
-4.0 -5.2 91 -13 -13 1003.6 994.6 -4.0 0.2 37
06 15.04 С 12-15
{16}
4000 м метель {ливн. осадки} 9/9 300 м
[Cb cap]
-6.0 -8.0 86 -17 -17 1005.8 996.7 -6.0
09 15.04 С 12-16
{16}
4000 м метель 9/9
[Sc]
-6.4 -8.7 84 -17 -17 1008.5 999.4
12 15.04 С 8-12
{16}
20 км позёмок 9/9 600 м
[Sc]
-7.9 -10.7 80 -17 -17 1010.9 1001.7
15 15.04 С 5
{12}
20 км позёмок {ливн. осадки} 4/4 300 м
[Cb cap]
-10.1 -13.0 79 -18 -18 1012.8 1003.5 -4.0 0.0
18 15.04 С 5 20 км {ливн. осадки, метель} 1/1 300 м
[Sc]
-15.7 -18.3 80 -25 -25 1014.6 1005.1
21 15.04 СВ 7-11
{12}
20 км позёмок 3/0
[Ac trans]
-15.2 -17.9 80 -26 -26 1016.7 1007.2
00 16.04 СВ 6
{12}
20 км позёмок 3/0
[Ac trans]
-16.8 -19.2 82 -27 -27 1020.2 1010.6
03 16.04 СВ 7-11
{12}
20 км позёмок 1/0
[Ac As]
-16.7 -19.9 76 -27 -27 1023.6 1013.9 -18.0 35
06 16.04 СВ 6-11
{13}
20 км позёмок 1/0
[Ac trans]
-14.9 -18.3 75 -24 -22 1027.4 1017.8
09 16.04 СВ 9-13
{13}
20 км позёмок 3/3 300 м
[Sc]
-13.8 -17.5 74 -25 -24 1030.8 1021.2
12 16.04 С 6
{13}
20 км {метель} 1/1 600 м
[Sc]
-12.6 -15.9 76 -22 -20 1033.0 1023.4
15 16.04 С 3 20 км {ливн. осадки} 1/1 600 м
[Sc diur, vesp]
-14.2 -16.5 83 -21 -20 1034.0 1024.4 -12.5 0.0
18 16.04 З 2 20 км {ливн. осадки} 3/0
[Ci sp]
-18.2 -20.1 85 -24 -24 1034.1 1024.3
21 16.04 З 1 10 км слаб. снег 9/0
[As op Cs]
-19.8 -22.1 82 -23 -23 1034.0 1024.1
00 17.04 З 3 4000 м мгла {снег} 10/0
[As op]
-19.3 -21.4 83 -27 -27 1033.0 1023.1
03 17.04 З 3 20 км 8/0
[Ac trans Ci sp]
-17.9 -20.2 82 -25 -24 1030.9 1021.1 -20.7 0.2 34
06 17.04 З 9-11
{12}
20 км позёмок 10/0
[Ac As]
-12.0 -13.9 86 -23 -22 1027.4 1017.9
09 17.04 З 12-15
{16}
500 м снег {метель} 10/0
[As trans]
-8.3 -10.0 88 -19 -19 1023.8 1014.4
12 17.04 З 9-14
{16}
2000 м снег {метель} 10/0 300 м
[As op]
-5.3 -6.5 91 -15 -15 1021.0 1011.8
15 17.04 З 7-10
{14}
20 км позёмок {снег} 10/10 300 м
[Cb cap]
-2.6 -3.5 94 -11 -11 1018.5 1009.4 -2.6 0.6
18 17.04 СЗ 7-11
{12}
10 км слаб. ливневой снег 10/10 300 м
[Cb cap]
-1.4 -2.4 93 -9 -9 1016.6 1007.6
21 17.04 СЗ 6
{11}
20 км {ливн. осадки} 10/9 300 м
[Frnb As op]
-1.4 -2.3 94 -9 -9 1015.4 1006.4
00 18.04 СЗ 8-13
{13}
20 км {ливн. осадки} 10/10 300 м
[Sc]
-0.7 -1.6 94 -9 -9 1013.4 1004.4
03 18.04 СЗ 5
{13}
20 км в посл. час ливневой снег 10/10 300 м
[Cb cap]
-0.3 -1.0 95 -7 -7 1012.9 1003.9 -2.6 0.5 36
06 18.04 С 7 20 км {ливн. осадки} 10/10 300 м
[Cb cap]
+0.1 -0.5 96 -7 -7 1013.8 1004.8
09 18.04 С 7-10
{10}
20 км 10/10 300 м
[Sc]
+0.4 -1.6 86 -7 -7 1015.8 1006.9
12 18.04 СЗ 6-10
{11}
20 км 10/10 300 м
[Sc]
+0.8 -1.0 88 -6 -6 1016.8 1007.8
15 18.04 СЗ 6 20 км 10/10 300 м
[Sc]
-0.5 -1.8 91 -7 -7 1016.3 1007.3 +0.8 0.0
18 18.04 З 8-12
{14}
4000 м слаб. снег {метель} 10/0 300 м
[As op]
-0.5 -1.3 94 -8 -8 1014.9 1005.9
21 18.04 СЗ 6
{13}
н/о н/о 0.0 -0.6 96 -7 -7 1014.1 1005.1
00 19.04 С 5 н/о н/о -1.5 -2.8 91 -8 -8 1014.7 1005.7
03 19.04 С 6
{12}
20 км позёмок 10/10 300 м
[Cb cap]
-2.6 -4.4 87 -10 -10 1015.7 1006.6 -2.6 0.3 37
06 19.04 С 5 20 км {метель} 10/10 300 м
[Sc]
-2.5 -4.0 89 -9 -9 1017.1 1008.0 -2.7
09 19.04 СЗ 5 20 км {ливн. осадки} 10/10 300 м
[Cb cap]
-1.3 -4.4 79 -8 -8 1018.3 1009.2
12 19.04 СЗ 4 20 км в посл. час ливневой снег 10/10 300 м
[Cb cap]
+0.2 -1.5 88 -5 -5 1018.6 1009.6
15 19.04 СЗ 5 4000 м слаб. ливневой снег 10/10 200 м
[Cb cap]
+0.1 -0.5 96 -6 -6 1018.5 1009.5 +0.4 0.2
18 19.04 СЗ 4 20 км {ливн. осадки} 10/10 300 м
[Cb cap]
+0.2 -0.1 98 -5 -5 1018.4 1009.4
21 19.04 СЗ 4 н/о н/о -0.4 -0.9 96 -6 -6 1018.7 1009.7
00 20.04 СЗ 5 20 км 10/10 200 м
[St]
+0.2 -0.2 97 -6 -6 1018.5 1009.5
03 20.04 СЗ 5
{11}
4000 м в посл. час туман 10/10 100 м
[St]
+0.3 -0.1 97 -6 -6 1018.5 1009.5 -0.4 0.2 35
06 20.04 СЗ 6
{10}
20 км {туман} 10/5 300 м
[St As op]
+0.8 -0.6 90 -6 -6 1018.4 1009.4
09 20.04 СЗ 6
{11}
20 км 10/10 300 м
[St]
+0.8 -0.2 93 -6 -6 1018.6 1009.6
12 20.04 СЗ 5 20 км 9/9 300 м
[Sc diur, vesp]
+1.2 -0.9 86 -5 -4 1018.3 1009.3
15 20.04 З 6
{10}
20 км 10/10 600 м
[Sc]
+0.7 -1.0 88 -6 -6 1016.8 1007.8 +1.5
18 20.04 З 8
{13}
4000 м слаб. ливневой снег 10/10 300 м
[Cb cap]
-0.1 -0.7 96 -8 -8 1013.7 1004.8
21 20.04 З 8-13
{14}
4000 м слаб. ливневой снег {метель} 10/10 300 м
[Cb cap]
0.0 -0.5 96 -8 -8 1010.1 1001.2

 

Местоположение метеостанции Хорей-Вер (Ненецкий АО, Россия): широта 67.43 долгота 58.02 высота над уровнем моря 72 м.

В архиве по умолчанию представлена погода в Хорей-Вере за последнюю неделю. Архивные данные за месяц целиком и за предыдущие месяцы, начиная с января 2011 года, Вы можете получить, выбрав интересующий диапазон дат из раскрывающегося списка и нажав кнопку "Ввод!".


*Определитесь, кто Вы:
робот инопланетянин человек

Внимание! Время в таблицах - всемирное. Для получения местного времени необходимо прибавить поправку, которая равна 3 ч.

Смотрите также архив погоды в соседних городах и на ближайших метеорологических станциях:

Погода в Харуте (Ненецкий АО, Россия) (92 км)
Погода в Варандее (Ненецкий АО, Россия) (155 км)
Погода в Усинске (Коми, Россия) (158 км)
Погода на Мысе Константиновском (Ненецкий АО, Россия) (163 км)
Погода в Петруни (Коми, Россия) (163 км)
Погода в Усть-Усе (Коми, Россия) (169 км)
Погода в Мутном Материке (Коми, Россия) (207 км)
Погода в Нарьян-Маре (Ненецкий АО, Россия) (214 км)
Погода в Ходоварихе (Ненецкий АО, Россия) (243 км)
Погода в Воркуте (Коми, Россия) (254 км)

Пояснения к столбцам:

Ветер - указаны скорость ветра в м/с - средняя за 10 мин, порывы в срок и между сроками (в фигурных скобках) и направление, откуда дует ветер: С - северный, СВ - северо-восточный, В - восточный, ЮВ - юго-восточный, Ю - южный, ЮЗ - юго-западный, З - западный, СЗ - северо-западный.
Видимость - горизонтальная дальность видимости в метрах или километрах. При видимости от 1 до 10 км при отсутствии осадков обычно наблюдается дымка, при ухудшении видимости до 1 км и менее - туман. В сухую погоду видимость может ухудшаться дымом, пылью или мглою.
Явления - указаны атмосферные явления, наблюдавшиеся в срок или в последний час перед сроком; фигурными скобками обозначены явления, наблюдавшиеся между сроками (за 1-3 часа до срока); квадратными скобками обозначены град или гололедные отложения с указанием их диаметра в мм.
Облачность - указаны через наклонную черту общая и нижняя облачность в баллах и высота нижней границы облаков в метрах; квадратными скобками обозначены формы облаков: Ci - перистые, Cs - перисто-слоистые, Cc - перисто-кучевые, Ac - высококучевые, As - высокослоистые, Sc - слоисто-кучевые, Ns - слоисто-дождевые, Cu - кучевые, Cb - кучево-дождевые. Подробнее классификацию облаков см. в Атласе облаков (PDF).
T - Температура воздуха - температура, измеренная на высоте 2 м над землей.
Td - Температура точки росы - температура, при понижении до которой содержащийся в воздухе водяной пар достигнет насыщения.
f - Относительная влажность воздуха - влажноcть воздуха, измеренная на высоте 2 м над землей.
Te - Эффективная температура - температура, которую ощущает одетый по сезону человек в тени. Характеристика душности погоды. При расчете учитывается влияние влажности воздуха и скорости ветра на теплоощущения человека.
Tes - Эффективная температура на солнце - температура, которую ощущает человек, с поправкой на солнечный нагрев. Характеристика знойности погоды. Зависит от высоты солнца над горизонтом, облачности и скорости ветра. Ночью, в пасмурную погоду, а также при ветре 12 м/с и более поправка равна нулю.
P - Атмосферное давление - приведенное к уровню моря атмосферное давление.
Po - Атмосферное давление - измеренное на уровне метеостанции атмосферное давление.
Tmin - Минимальная температура - минимум температуры воздуха на высоте 2 м над землей.
Tmax - Максимальная температура - максимум температуры воздуха на высоте 2 м над землей.
R - Количество осадков - Количество выпавших осадков за период времени, мм. При наведении курсора мыши на число - период времени, за который выпало указанное количество осадков.
R24 - Количество осадков - Количество выпавших осадков за 24 часа, мм.
S - Снежный покров - Высота снежного покрова, см. При наведении курсора мыши на число - состояние снежного покрова и степень покрытия местности в баллах.